{"data":{"norad_id":47292,"epoch":"2026-05-25T01:57:24.954048Z","epoch_age_seconds":67728,"freshness":"FRESH","line1":"1 47292U 20100AL  26145.08153882 -.00000324  00000+0 -93527-3 0  9999","line2":"2 47292  87.8959 355.2557 0002039  78.5506 281.5851 13.12443255261648","mean_motion":13.12443255,"eccentricity":0.0002039,"inclination_deg":87.8959,"raan_deg":355.2557,"arg_perigee_deg":78.5506,"mean_anomaly_deg":281.5851,"bstar":-0.00093527,"rev_number":26164,"period_min":109.71902933815,"perigee_km":1212.1743275657,"apogee_km":1215.2702877914,"semimajor_km":7591.8593076785,"source":"CELESTRAK","updated_at":"2026-05-25T13:38:22.386766Z"}}